SCP
0 0 0 -0 -0 0 0 0 -0 0 0 0 0 0 0 0 0 0 0 0 0 0 0 0 0 0 0 0 -0 -0 -0 -0 -0 -0 -0 -0 -0 -0
0 0 0 0 -0 0 0 -0 0 0 0 0 0 0 0 1 0 0 0 0 0 0 0 0 0 0 0 0 -0 -0 -0 -0 0 -0 -0 -0 -0 -0
0 0 0 0 -0 0 0 -0 0 0 0 0 0 0 0 0 0 0 0 0 0 0 0 0 0 0 0 0 -0 -0 -0 -0 -0 -0 0 -0 -0 -0
0 0 0 0 0 0 0 0 0 0 0 0 0 0 0 0 0 0 0 0 0 0 0 0 0 0 0 -0 -0 -0 -0 -0 -0 -0 -0 -0 -0 -0
0 0 0 0 0 0 0 0 0 0 0 0 0 0 0 0 0 0 0 0 0 0 0 0 0 0 0 0 0 0 -0 -0 -0 -0 -0 -0 -0 -0
0 0 -0 0 0 0 0 0 0 0 0 0 0 0 0 0 0 0 0 0 0 0 0 0 0 0 0 0 0 0 -0 0 -0 0 0 -0 -0 0
0 0 -0 0 0 0 0 0 0 0 0 0 0 0 0 0 0 0 0 0 0 0 0 0 0 0 0 0 0 0 0 -0 0 0 0 0 0 0
0 -0 0 0 0 0 0 0 0 0 0 0 0 0 0 0 0 0 0 0 0 0 0 0 0 0 0 0 0 -0 0 0 0 0 0 0 0 0
0 -0 0 0 0 0 0 0 0 0 0 0 0 0 0 0 0 0 0 0 0 0 0 0 0 0 0 0 0 -0 -0 -0 -0 0 0 0 0 0
0 -0 0 0 0 0 0 0 0 0 0 0 0 0 0 0 0 0 0 0 0 0 0 0 0 0 0 0 0 0 0 0 0 0 0 0 0 0
-0 -0 0 0 0 0 0 0 0 0 0 0 0 0 0 0 0 0 0 0 0 0 0 0 0 0 0 0 0 0 0 -0 0 -0 0 0 0 0
-0 -0 0 0 0 0 0 0 0 0 0 0 0 0 0 0 0 0 0 0 0 0 0 0 0 0 0 0 0 0 -0 -0 -0 -0 0 0 0 0
0 0 0 0 0 0 0 0 0 0 0 0 0 0 0 0 0 0 0 0 0 0 0 0 0 0 0 0 0 -0 0 -0 -0 0 0 0 0 0
0 0 0 0 0 0 0 0 0 0 0 0 0 0 0 0 0 0 0 0 0 0 -0 0 0 0 0 0 0 -0 -0 -0 0 0 0 0 0 0
0 0 0 0 0 0 0 0 0 0 0 0 0 0 0 0 0 0 -0 0 0 0 0 0 0 0 0 0 -0 -0 -0 0 0 0 0 0 0 0
0 0 0 0 0 0 0 0 0 0 0 0 0 0 0 0 0 0 0 0 0 0 0 0 0 0 -0 0 0 0 -0 0 0 0 0 0 0 0
0 0 0 0 0 0 0 0 0 0 0 0 0 0 0 -0 0 0 0 0 0 0 0 -0 0 0 -0 0 -0 -0 0 0 0 0 0 0 0 0
-0 -0 0 0 0 0 0 0 0 0 0 0 0 0 0 0 0 0 0 0 0 -0 -0 0 -0 -0 -0 0 -0 -0 0 0 0 0 0 0 0 0
-0 -0 0 0 0 0 0 0 -0 -0 -0 -0 -0 -0 0 0 0 0 0 0 0 0 -0 -0 -0 -0 0 -0 -0 -0 0 0 0 0 0 0 0 1
0 0 0 0 0 0 0 -0 -0 0 0 0 0 0 0 0 0 0 0 -0 -0 -0 0 -0 0 0 0 -0 -0 0 -0 0 0 0 0 0 0 0
-0 -0 -0 -0 -0 -0 -0 -0 -0 -0 0 0 0 0 0 0 0 0 0 -0 -0 -0 0 0 0 0 0 0 0 0 0 0 0 0 0 0 0 0
0 -0 -0 -0 -0 0 0 0 0 0 -0 0 -0 -0 -0 0 0 0 0 -0 0 0 0 -0 0 0 0 0 0 0 0 0 0 0 0 0 0 0
0 0 0 0 -0 -0 0 0 0 0 0 -0 -0 -0 0 0 0 0 0 0 0 0 0 0 0 0 0 0 0 0 0 0 0 0 0 0 0 0
Wind_Speed_500mb
22 21 20 20 17 20 15 16 21 15 19 24 28 33 34 37 29 25 30 38 39 36 40 41 37 34 39 39 39 38 41 38 34 32 31 31 30 25
22 21 23 20 22 13 17 20 22 16 22 31 25 38 34 34 39 31 31 38 38 39 38 41 36 37 39 40 35 39 38 35 33 30 32 31 26 24
29 19 21 19 19 24 21 17 22 22 28 32 33 38 37 34 39 30 35 40 40 37 41 41 37 41 42 41 40 39 38 36 31 32 31 26 22 19
29 26 19 15 20 27 23 25 20 15 30 37 42 37 34 31 37 39 40 44 41 41 41 43 39 42 45 42 41 41 36 32 30 27 26 19 19 18
31 34 25 16 18 26 28 29 22 20 33 40 46 43 44 38 39 39 41 43 41 42 45 42 42 45 46 45 41 37 32 35 31 26 22 19 19 17
29 35 32 16 16 26 25 25 25 27 40 43 44 46 44 42 42 46 46 43 50 46 47 48 49 53 50 44 40 36 37 33 29 25 21 20 19 19
25 37 33 23 21 23 20 24 32 33 39 39 42 46 48 48 52 51 53 54 53 52 56 57 54 54 47 38 41 38 37 33 28 25 23 22 21 20
16 30 31 30 24 24 33 29 34 40 39 38 49 49 50 57 55 54 58 61 66 65 63 60 58 48 45 39 41 44 40 33 28 25 24 23 22 21
21 26 23 22 25 25 34 31 29 32 27 33 54 56 54 59 59 56 54 63 77 72 55 59 41 37 40 38 46 44 38 33 28 27 25 23 23 23
17 22 23 19 25 23 30 29 29 26 21 24 47 54 53 51 54 61 70 78 72 68 62 59 51 43 32 39 47 43 34 33 31 28 25 25 25 25
17 22 28 26 25 37 32 34 35 31 27 26 32 42 55 54 58 71 64 69 67 63 38 60 56 28 24 34 44 39 36 34 31 29 28 27 28 32
18 21 25 32 28 34 32 37 36 33 29 30 32 41 58 54 66 50 49 60 70 54 37 52 47 27 19 25 36 38 35 32 32 31 30 31 34 38
16 22 26 34 28 29 27 29 33 38 36 36 41 39 48 51 68 44 39 42 54 25 45 28 37 31 13 19 33 33 33 34 33 33 35 37 39 43
22 33 34 35 32 33 33 29 34 39 43 41 45 47 54 48 55 46 45 34 43 20 36 32 31 33 20 13 18 28 32 33 34 36 39 39 44 49
25 30 33 34 35 30 30 32 35 39 42 42 47 50 47 41 36 37 36 42 24 21 22 40 26 33 24 17 17 20 25 31 34 37 39 43 50 53
29 35 36 37 33 35 36 33 24 27 36 43 43 38 38 50 43 38 30 26 18 23 30 38 31 30 25 21 18 17 24 19 26 36 41 47 53 59
35 39 42 41 42 40 41 27 20 27 36 38 41 45 49 50 42 29 25 24 16 18 30 38 33 32 32 29 27 28 29 35 37 41 50 59 61 60
33 40 44 44 43 40 34 30 28 32 38 44 51 44 43 38 33 39 25 26 23 22 23 28 29 29 29 37 42 40 38 41 43 45 49 59 65 64
24 36 44 40 36 30 30 33 35 30 41 42 41 39 35 33 33 27 25 24 24 23 23 24 26 28 30 38 32 39 44 42 39 45 50 56 66 69
22 23 24 21 23 26 27 30 46 39 38 40 35 37 36 35 30 29 28 28 29 30 29 29 33 37 39 41 42 43 44 47 53 63 66 66 69 73
20 21 26 25 19 26 27 31 29 29 30 32 33 30 36 31 32 30 30 33 33 32 35 38 40 40 44 43 50 55 53 59 63 65 69 68 75 79
21 22 20 17 20 19 20 32 31 30 26 28 28 28 28 30 31 32 34 35 35 39 40 39 39 42 43 48 61 64 62 62 63 68 67 70 76 83
24 25 22 27 22 22 23 21 33 34 28 29 31 32 31 31 31 33 34 36 38 40 40 42 45 49 57 62 65 69 71 70 68 68 70 67 75 83
Wind_Direction_500mb
219 235 233 233 217 221 216 204 193 173 174 180 167 172 165 179 166 167 173 173 174 171 175 175 175 176 170 162 163 167 166 169 165 157 156 156 156 155
225 235 229 228 221 211 207 209 214 199 168 178 167 161 165 167 168 172 172 170 171 171 174 172 170 173 166 162 168 165 170 172 161 160 159 159 164 171
219 224 228 229 220 191 206 198 204 181 179 161 163 165 167 157 166 168 165 171 168 169 169 169 171 170 162 168 166 173 175 168 167 167 165 167 175 190
220 215 221 230 220 191 190 207 196 178 162 157 159 157 159 163 165 160 160 165 166 163 170 167 173 169 170 168 172 175 175 173 174 169 178 178 194 219
227 218 220 212 214 198 186 197 195 188 175 160 157 168 165 168 168 167 161 161 162 159 165 171 174 169 170 171 174 174 180 176 178 182 184 203 223 234
232 224 221 202 209 194 189 186 183 168 171 167 168 170 172 166 171 163 158 161 155 161 167 178 173 173 171 176 175 183 178 179 184 188 202 215 230 238
241 225 197 201 207 192 180 181 168 160 166 169 171 168 165 168 170 168 164 159 157 167 172 167 170 170 173 181 180 180 186 188 195 202 212 225 234 242
175 186 195 209 198 199 178 168 176 170 176 182 176 174 172 175 175 174 167 160 153 172 170 167 172 171 177 182 188 184 188 194 201 210 223 232 239 246
149 173 190 196 190 186 180 172 169 171 202 192 181 181 180 178 178 173 165 166 167 169 184 162 162 168 179 188 181 187 195 203 210 222 228 235 242 247
161 172 172 171 176 161 161 161 170 179 177 182 186 185 181 179 184 169 167 163 161 166 173 159 166 174 184 196 196 200 212 216 219 225 230 238 244 253
170 170 174 171 178 153 162 162 170 176 173 189 191 187 175 177 173 173 171 162 162 168 166 172 169 170 184 199 201 212 213 218 223 228 236 244 253 263
171 173 178 180 172 162 180 171 173 181 173 164 167 171 183 176 171 169 168 168 163 163 176 177 174 164 194 214 211 212 219 223 227 234 243 253 263 272
149 161 161 174 165 165 155 178 181 169 162 158 161 165 171 177 185 164 170 181 169 164 173 171 179 189 183 210 219 223 227 231 234 241 252 261 269 277
139 135 140 148 159 163 170 171 161 157 156 160 166 169 178 177 188 194 191 198 167 161 188 161 189 197 183 211 214 232 234 239 248 255 263 270 272 276
146 140 136 136 145 139 149 156 154 158 161 161 160 165 178 182 169 154 143 153 190 211 216 214 179 194 182 229 220 229 228 251 259 265 273 278 284 286
140 146 146 145 138 141 144 142 151 157 167 168 167 162 167 164 146 153 161 170 185 213 198 186 181 205 219 225 237 236 266 243 275 279 281 279 278 278
135 136 143 143 143 150 153 143 164 164 165 166 163 155 157 165 169 165 164 178 186 197 196 206 214 219 215 221 242 248 247 252 265 268 274 280 288 292
125 136 139 142 151 152 159 159 152 158 160 155 158 153 159 165 176 182 179 190 197 206 210 214 224 232 243 250 249 252 248 255 261 267 271 271 273 277
131 135 137 136 140 149 164 166 156 147 165 156 158 167 172 177 180 188 195 206 214 216 218 220 219 229 242 253 263 274 270 267 269 270 270 272 277 281
151 152 158 163 164 157 158 158 155 157 165 168 173 174 180 191 193 201 209 217 224 226 230 231 233 238 245 256 265 270 281 278 274 280 281 280 278 283
169 161 176 169 153 157 152 160 170 166 171 173 177 188 189 193 205 215 223 228 231 235 238 241 244 251 256 265 267 269 266 273 278 283 288 286 287 291
174 172 175 181 181 176 167 174 178 180 179 184 189 196 200 213 223 228 232 235 236 239 244 249 254 257 260 258 263 267 271 273 274 278 281 283 288 287
185 181 182 180 187 189 187 192 193 187 192 201 206 211 217 224 230 233 237 240 243 247 251 257 260 260 260 261 266 270 271 273 277 281 282 290 290 290
Wind_Speed_850mb
22 21 20 20 17 20 15 16 21 15 19 24 28 33 34 37 29 25 30 38 39 36 40 41 37 34 39 39 39 38 41 38 34 32 31 31 30 25
22 21 23 20 22 13 17 20 22 16 22 31 25 38 34 34 39 31 31 38 38 39 38 41 36 37 39 40 35 39 38 35 33 30 32 31 26 24
29 19 21 19 19 24 21 17 22 22 28 32 33 38 37 34 39 30 35 40 40 37 41 41 37 41 42 41 40 39 38 36 31 32 31 26 22 19
29 26 19 15 20 27 23 25 20 15 30 37 42 37 34 31 37 39 40 44 41 41 41 43 39 42 45 42 41 41 36 32 30 27 26 19 19 18
31 34 25 16 18 26 28 29 22 20 33 40 46 43 44 38 39 39 41 43 41 42 45 42 42 45 46 45 41 37 32 35 31 26 22 19 19 17
29 35 32 16 16 26 25 25 25 27 40 43 44 46 44 42 42 46 46 43 50 46 47 48 49 53 50 44 40 36 37 33 29 25 21 20 19 19
25 37 33 23 21 23 20 24 32 33 39 39 42 46 48 48 52 51 53 54 53 52 56 57 54 54 47 38 41 38 37 33 28 25 23 22 21 20
16 30 31 30 24 24 33 29 34 40 39 38 49 49 50 57 55 54 58 61 66 65 63 60 58 48 45 39 41 44 40 33 28 25 24 23 22 21
21 26 23 22 25 25 34 31 29 32 27 33 54 56 54 59 59 56 54 63 77 72 55 59 41 37 40 38 46 44 38 33 28 27 25 23 23 23
17 22 23 19 25 23 30 29 29 26 21 24 47 54 53 51 54 61 70 78 72 68 62 59 51 43 32 39 47 43 34 33 31 28 25 25 25 25
17 22 28 26 25 37 32 34 35 31 27 26 32 42 55 54 58 71 64 69 67 63 38 60 56 28 24 34 44 39 36 34 31 29 28 27 28 32
18 21 25 32 28 34 32 37 36 33 29 30 32 41 58 54 66 50 49 60 70 54 37 52 47 27 19 25 36 38 35 32 32 31 30 31 34 38
16 22 26 34 28 29 27 29 33 38 36 36 41 39 48 51 68 44 39 42 54 25 45 28 37 31 13 19 33 33 33 34 33 33 35 37 39 43
22 33 34 35 32 33 33 29 34 39 43 41 45 47 54 48 55 46 45 34 43 20 36 32 31 33 20 13 18 28 32 33 34 36 39 39 44 49
25 30 33 34 35 30 30 32 35 39 42 42 47 50 47 41 36 37 36 42 24 21 22 40 26 33 24 17 17 20 25 31 34 37 39 43 50 53
29 35 36 37 33 35 36 33 24 27 36 43 43 38 38 50 43 38 30 26 18 23 30 38 31 30 25 21 18 17 24 19 26 36 41 47 53 59
35 39 42 41 42 40 41 27 20 27 36 38 41 45 49 50 42 29 25 24 16 18 30 38 33 32 32 29 27 28 29 35 37 41 50 59 61 60
33 40 44 44 43 40 34 30 28 32 38 44 51 44 43 38 33 39 25 26 23 22 23 28 29 29 29 37 42 40 38 41 43 45 49 59 65 64
24 36 44 40 36 30 30 33 35 30 41 42 41 39 35 33 33 27 25 24 24 23 23 24 26 28 30 38 32 39 44 42 39 45 50 56 66 69
22 23 24 21 23 26 27 30 46 39 38 40 35 37 36 35 30 29 28 28 29 30 29 29 33 37 39 41 42 43 44 47 53 63 66 66 69 73
20 21 26 25 19 26 27 31 29 29 30 32 33 30 36 31 32 30 30 33 33 32 35 38 40 40 44 43 50 55 53 59 63 65 69 68 75 79
21 22 20 17 20 19 20 32 31 30 26 28 28 28 28 30 31 32 34 35 35 39 40 39 39 42 43 48 61 64 62 62 63 68 67 70 76 83
24 25 22 27 22 22 23 21 33 34 28 29 31 32 31 31 31 33 34 36 38 40 40 42 45 49 57 62 65 69 71 70 68 68 70 67 75 83
Wind_Direction_850mb
219 235 233 233 217 221 216 204 193 173 174 180 167 172 165 179 166 167 173 173 174 171 175 175 175 176 170 162 163 167 166 169 165 157 156 156 156 155
225 235 229 228 221 211 207 209 214 199 168 178 167 161 165 167 168 172 172 170 171 171 174 172 170 173 166 162 168 165 170 172 161 160 159 159 164 171
219 224 228 229 220 191 206 198 204 181 179 161 163 165 167 157 166 168 165 171 168 169 169 169 171 170 162 168 166 173 175 168 167 167 165 167 175 190
220 215 221 230 220 191 190 207 196 178 162 157 159 157 159 163 165 160 160 165 166 163 170 167 173 169 170 168 172 175 175 173 174 169 178 178 194 219
227 218 220 212 214 198 186 197 195 188 175 160 157 168 165 168 168 167 161 161 162 159 165 171 174 169 170 171 174 174 180 176 178 182 184 203 223 234
232 224 221 202 209 194 189 186 183 168 171 167 168 170 172 166 171 163 158 161 155 161 167 178 173 173 171 176 175 183 178 179 184 188 202 215 230 238
241 225 197 201 207 192 180 181 168 160 166 169 171 168 165 168 170 168 164 159 157 167 172 167 170 170 173 181 180 180 186 188 195 202 212 225 234 242
175 186 195 209 198 199 178 168 176 170 176 182 176 174 172 175 175 174 167 160 153 172 170 167 172 171 177 182 188 184 188 194 201 210 223 232 239 246
149 173 190 196 190 186 180 172 169 171 202 192 181 181 180 178 178 173 165 166 167 169 184 162 162 168 179 188 181 187 195 203 210 222 228 235 242 247
161 172 172 171 176 161 161 161 170 179 177 182 186 185 181 179 184 169 167 163 161 166 173 159 166 174 184 196 196 200 212 216 219 225 230 238 244 253
170 170 174 171 178 153 162 162 170 176 173 189 191 187 175 177 173 173 171 162 162 168 166 172 169 170 184 199 201 212 213 218 223 228 236 244 253 263
171 173 178 180 172 162 180 171 173 181 173 164 167 171 183 176 171 169 168 168 163 163 176 177 174 164 194 214 211 212 219 223 227 234 243 253 263 272
149 161 161 174 165 165 155 178 181 169 162 158 161 165 171 177 185 164 170 181 169 164 173 171 179 189 183 210 219 223 227 231 234 241 252 261 269 277
139 135 140 148 159 163 170 171 161 157 156 160 166 169 178 177 188 194 191 198 167 161 188 161 189 197 183 211 214 232 234 239 248 255 263 270 272 276
146 140 136 136 145 139 149 156 154 158 161 161 160 165 178 182 169 154 143 153 190 211 216 214 179 194 182 229 220 229 228 251 259 265 273 278 284 286
140 146 146 145 138 141 144 142 151 157 167 168 167 162 167 164 146 153 161 170 185 213 198 186 181 205 219 225 237 236 266 243 275 279 281 279 278 278
135 136 143 143 143 150 153 143 164 164 165 166 163 155 157 165 169 165 164 178 186 197 196 206 214 219 215 221 242 248 247 252 265 268 274 280 288 292
125 136 139 142 151 152 159 159 152 158 160 155 158 153 159 165 176 182 179 190 197 206 210 214 224 232 243 250 249 252 248 255 261 267 271 271 273 277
131 135 137 136 140 149 164 166 156 147 165 156 158 167 172 177 180 188 195 206 214 216 218 220 219 229 242 253 263 274 270 267 269 270 270 272 277 281
151 152 158 163 164 157 158 158 155 157 165 168 173 174 180 191 193 201 209 217 224 226 230 231 233 238 245 256 265 270 281 278 274 280 281 280 278 283
169 161 176 169 153 157 152 160 170 166 171 173 177 188 189 193 205 215 223 228 231 235 238 241 244 251 256 265 267 269 266 273 278 283 288 286 287 291
174 172 175 181 181 176 167 174 178 180 179 184 189 196 200 213 223 228 232 235 236 239 244 249 254 257 260 258 263 267 271 273 274 278 281 283 288 287
185 181 182 180 187 189 187 192 193 187 192 201 206 211 217 224 230 233 237 240 243 247 251 257 260 260 260 261 266 270 271 273 277 281 282 290 290 290